Location: Mentone
(34.5413°N, 85.5351°W)
Time: 08:59:20
(UTC-06:00)

Uosat F - Visible Passes

Search period start: 24 November 2014 00:00
Search period end: 04 December 2014 00:00
Orbit: 752 x 762 km, 98.7° (Epoch: 23 November)

Date Brightness Start Highest point End Pass type
(mag) Time Alt. Az. Time Alt. Az. Time Alt. Az.
24 Nov 12.8 03:33:01 10° NE 03:37:24 30° E 03:41:45 10° SSE visible
24 Nov 12.0 05:11:56 10° NNW 05:16:01 26° WNW 05:20:05 10° WSW visible
25 Nov 14.1 02:56:22 10° ENE 02:57:55 11° E 02:59:28 10° ESE visible
25 Nov 10.9 04:32:06 10° N 04:37:04 65° WNW 04:42:00 10° SSW visible
26 Nov 11.9 03:53:03 10° NNE 03:57:54 49° E 04:02:43 10° S visible
26 Nov 12.5 05:33:10 10° NNW 05:36:14 17° WNW 05:39:18 10° WSW visible
27 Nov 13.5 03:15:00 10° NE 03:18:32 19° E 03:22:02 10° SE visible
27 Nov 11.4 04:52:45 10° N 04:57:25 40° WNW 05:02:02 10° SW visible
28 Nov 11.0 04:13:19 10° NNE 04:18:21 81° ESE 04:23:21 10° S visible
28 Nov 12.9 05:56:03 10° WNW 05:56:24 10° WNW 05:56:44 10° WNW visible
29 Nov 12.7 03:34:40 10° NE 03:39:05 31° E 03:43:28 10° SSE visible
29 Nov 12.0 05:13:38 10° NNW 05:17:41 25° WNW 05:21:43 10° WSW visible
30 Nov 14.0 02:57:53 10° ENE 02:59:36 12° E 03:01:19 10° ESE visible
30 Nov 10.9 04:33:47 10° N 04:38:45 63° WNW 04:43:39 10° SSW visible
01 Dec 11.8 03:54:42 10° NNE 03:59:35 50° E 04:04:24 10° S visible
01 Dec 12.5 05:34:54 10° NNW 05:37:54 16° WNW 05:40:53 10° WSW visible
02 Dec 13.4 03:16:37 10° NE 03:20:12 20° E 03:23:46 10° SE visible
02 Dec 11.4 04:54:27 10° N 04:59:04 39° WNW 05:03:40 10° SW visible
03 Dec 11.0 04:14:59 10° NNE 04:20:01 82° ESE 04:25:00 10° SSW visible
